When you browse on this site, cookies collect data to enhance your experience and personalize the content and advertising you see.
Visit our Privacy Policy to learn more. By continuing to use the site, you agree to this use of cookies and data.
EN

Hourly Weather Gyomaendrod

Today, 7 August, Friday

Time Temperature Precipitation Wind Pressure Humidity
00:00 +22°C° 0 mm 3 mps 755 mmHg 63%
01:00 +22°C° 0 mm 3 mps 756 mmHg 61%
02:00 +22°C° 0 mm 3 mps 755 mmHg 62%
03:00 +22°C° 0 mm 3 mps 755 mmHg 63%
04:00 +21°C° 0 mm 3 mps 755 mmHg 64%
05:00 +22°C° 0 mm 4 mps 756 mmHg 65%
06:00 +23°C° 0 mm 4 mps 756 mmHg 65%
07:00 +25°C° 0 mm 4 mps 756 mmHg 64%
08:00 +27°C° 0 mm 4 mps 756 mmHg 59%
09:00 +29°C° 0 mm 4 mps 756 mmHg 53%
10:00 +32°C° 0 mm 4 mps 756 mmHg 48%
11:00 +32°C° 0 mm 4 mps 756 mmHg 45%
12:00 +33°C° 0 mm 4 mps 756 mmHg 42%
13:00 +34°C° 0 mm 3 mps 756 mmHg 40%
14:00 +33°C° 0 mm 4 mps 756 mmHg 45%
15:00 +32°C° 0 mm 4 mps 755 mmHg 50%
16:00 +30°C° 0 mm 5 mps 755 mmHg 55%
17:00 +29°C° 0 mm 4 mps 755 mmHg 58%
18:00 +28°C° 0 mm 4 mps 755 mmHg 61%
19:00 +27°C° 0 mm 4 mps 755 mmHg 65%
20:00 +27°C° 0 mm 4 mps 755 mmHg 64%
21:00 +26°C° 0 mm 4 mps 755 mmHg 64%
22:00 +26°C° 0 mm 4 mps 756 mmHg 63%
23:00 +25°C° 0 mm 3 mps 756 mmHg 64%

Tomorrow, 8 August, Saturday

Time Temperature Precipitation Wind Pressure Humidity
00:00 +24°C° 0 mm 3 mps 756 mmHg 65%
01:00 +24°C° 0 mm 3 mps 756 mmHg 66%
02:00 +24°C° 0 mm 3 mps 756 mmHg 67%
03:00 +23°C° 0 mm 2 mps 756 mmHg 68%
04:00 +23°C° 0 mm 2 mps 756 mmHg 69%
05:00 +24°C° 0 mm 2 mps 756 mmHg 68%
06:00 +25°C° 0 mm 3 mps 756 mmHg 67%
07:00 +25°C° 0 mm 3 mps 756 mmHg 67%
08:00 +27°C° 0 mm 3 mps 756 mmHg 63%
09:00 +28°C° 0 mm 3 mps 756 mmHg 59%
10:00 +29°C° 0 mm 3 mps 756 mmHg 56%
11:00 +30°C° 0 mm 3 mps 756 mmHg 53%
12:00 +31°C° 0 mm 3 mps 756 mmHg 50%
13:00 +33°C° 0 mm 3 mps 755 mmHg 48%
14:00 +33°C° 0 mm 3 mps 755 mmHg 47%
15:00 +34°C° 0 mm 4 mps 755 mmHg 46%
16:00 +34°C° 0 mm 4 mps 754 mmHg 45%
17:00 +32°C° 0 mm 4 mps 754 mmHg 51%
18:00 +29°C° 0 mm 3 mps 754 mmHg 57%
19:00 +27°C° 0 mm 3 mps 754 mmHg 63%
20:00 +27°C° 0 mm 2 mps 754 mmHg 65%
21:00 +26°C° 0 mm 2 mps 754 mmHg 66%
22:00 +25°C° 0 mm 1 mps 754 mmHg 67%
23:00 +25°C° 0 mm 2 mps 754 mmHg 70%

Day after tomorrow, 9 August, Sunday

Time Temperature Precipitation Wind Pressure Humidity
00:00 +24°C° 0 mm 2 mps 754 mmHg 72%
01:00 +24°C° 0 mm 3 mps 754 mmHg 75%
02:00 +22°C° 0 mm 3 mps 754 mmHg 78%
03:00 +21°C° 0 mm 3 mps 754 mmHg 80%
04:00 +21°C° 0 mm 3 mps 753 mmHg 83%
05:00 +22°C° 0 mm 3 mps 754 mmHg 80%
06:00 +24°C° 0 mm 3 mps 754 mmHg 76%
07:00 +25°C° 0 mm 3 mps 754 mmHg 73%
08:00 +27°C° 0 mm 2 mps 754 mmHg 66%
09:00 +28°C° 0 mm 2 mps 754 mmHg 60%
10:00 +30°C° 0 mm 2 mps 754 mmHg 53%
11:00 +31°C° 0 mm 2 mps 754 mmHg 50%
12:00 +32°C° 0 mm 2 mps 754 mmHg 47%
13:00 +34°C° 0 mm 3 mps 753 mmHg 43%
14:00 +34°C° 0 mm 3 mps 753 mmHg 44%
15:00 +34°C° 0 mm 3 mps 753 mmHg 44%
16:00 +34°C° 0 mm 4 mps 753 mmHg 44%
17:00 +31°C° 0 mm 3 mps 752 mmHg 50%
18:00 +29°C° 0 mm 3 mps 752 mmHg 56%
19:00 +27°C° 0 mm 3 mps 752 mmHg 62%
20:00 +27°C° 0 mm 2 mps 753 mmHg 64%
21:00 +26°C° 0 mm 2 mps 753 mmHg 66%
22:00 +25°C° 0 mm 2 mps 753 mmHg 68%
23:00 +25°C° 0 mm 2 mps 753 mmHg 71%

10 August, Monday

Time Temperature Precipitation Wind Pressure Humidity
00:00 +24°C° 0 mm 2 mps 753 mmHg 73%
01:00 +24°C° 0 mm 2 mps 753 mmHg 76%
02:00 +23°C° 0 mm 2 mps 753 mmHg 78%
03:00 +21°C° 0 mm 2 mps 753 mmHg 79%
04:00 +21°C° 0 mm 3 mps 753 mmHg 81%
05:00 +22°C° 0 mm 3 mps 753 mmHg 78%
06:00 +24°C° 0 mm 3 mps 753 mmHg 75%
07:00 +25°C° 0 mm 3 mps 753 mmHg 72%
08:00 +26°C° 0 mm 2 mps 753 mmHg 66%
09:00 +28°C° 0 mm 2 mps 753 mmHg 59%
10:00 +30°C° 0 mm 2 mps 753 mmHg 53%
11:00 +31°C° 0 mm 2 mps 753 mmHg 50%
12:00 +32°C° 0 mm 2 mps 753 mmHg 46%
13:00 +32°C° 0 mm 2 mps 752 mmHg 43%
14:00 +32°C° 0 mm 2 mps 752 mmHg 42%
15:00 +32°C° 0 mm 2 mps 752 mmHg 42%
16:00 +32°C° 0 mm 2 mps 752 mmHg 41%
17:00 +31°C° 0 mm 2 mps 752 mmHg 48%
18:00 +29°C° 0 mm 2 mps 752 mmHg 55%
19:00 +27°C° 0 mm 2 mps 752 mmHg 61%
20:00 +26°C° 0 mm 2 mps 752 mmHg 64%
21:00 +26°C° 0 mm 2 mps 752 mmHg 66%
22:00 +25°C° 0 mm 2 mps 753 mmHg 68%
23:00 +25°C° 0 mm 2 mps 753 mmHg 70%

11 August, Tuesday

Time Temperature Precipitation Wind Pressure Humidity
00:00 +24°C° 0 mm 2 mps 753 mmHg 73%
01:00 +23°C° 0 mm 2 mps 753 mmHg 75%
02:00 +23°C° 0 mm 2 mps 753 mmHg 77%
03:00 +21°C° 0 mm 2 mps 753 mmHg 78%
04:00 +21°C° 0 mm 2 mps 753 mmHg 80%
05:00 +23°C° 0 mm 2 mps 753 mmHg 77%
06:00 +24°C° 0 mm 2 mps 753 mmHg 74%
07:00 +25°C° 0 mm 2 mps 753 mmHg 71%
08:00 +26°C° 0 mm 2 mps 753 mmHg 64%
09:00 +28°C° 0 mm 2 mps 753 mmHg 58%
10:00 +30°C° 0 mm 2 mps 754 mmHg 51%
11:00 +31°C° 0 mm 3 mps 753 mmHg 47%
12:00 +31°C° 0 mm 3 mps 753 mmHg 43%
13:00 +33°C° 0 mm 3 mps 753 mmHg 39%
14:00 +33°C° 0 mm 3 mps 753 mmHg 39%
15:00 +33°C° 0 mm 3 mps 752 mmHg 39%
16:00 +33°C° 0 mm 3 mps 752 mmHg 39%
17:00 +30°C° 0 mm 3 mps 752 mmHg 45%
18:00 +29°C° 0 mm 3 mps 752 mmHg 50%
19:00 +27°C° 0 mm 2 mps 752 mmHg 56%
20:00 +26°C° 0 mm 2 mps 753 mmHg 58%
21:00 +25°C° 0 mm 2 mps 753 mmHg 60%
22:00 +25°C° 0 mm 2 mps 753 mmHg 61%
23:00 +24°C° 0 mm 2 mps 753 mmHg 65%

12 August, Wednesday

Time Temperature Precipitation Wind Pressure Humidity
00:00 +23°C° 0 mm 2 mps 753 mmHg 68%
01:00 +22°C° 0 mm 3 mps 753 mmHg 72%
02:00 +21°C° 0 mm 3 mps 753 mmHg 75%
03:00 +21°C° 0 mm 3 mps 753 mmHg 78%
04:00 +20°C° 0 mm 3 mps 753 mmHg 81%
05:00 +21°C° 0 mm 3 mps 753 mmHg 78%
06:00 +22°C° 0 mm 3 mps 753 mmHg 75%
07:00 +23°C° 0 mm 4 mps 753 mmHg 72%
08:00 +26°C° 0 mm 4 mps 753 mmHg 65%
09:00 +27°C° 0 mm 4 mps 753 mmHg 59%
10:00 +29°C° 0 mm 4 mps 754 mmHg 53%
11:00 +30°C° 0 mm 4 mps 753 mmHg 49%
12:00 +30°C° 0 mm 5 mps 753 mmHg 46%
13:00 +32°C° 0 mm 5 mps 753 mmHg 43%
14:00 +32°C° 0 mm 5 mps 753 mmHg 42%
15:00 +32°C° 0 mm 5 mps 753 mmHg 42%
16:00 +30°C° 0 mm 5 mps 753 mmHg 41%
17:00 +29°C° 0 mm 4 mps 753 mmHg 46%
18:00 +27°C° 0 mm 4 mps 753 mmHg 50%
19:00 +25°C° 0 mm 3 mps 753 mmHg 55%
20:00 +24°C° 0 mm 3 mps 753 mmHg 57%
21:00 +22°C° 0 mm 3 mps 754 mmHg 59%
22:00 +21°C° 0 mm 3 mps 754 mmHg 61%
23:00 +20°C° 0 mm 3 mps 754 mmHg 62%
Show more